Time,TemperatureF,DewpointF,PressureIn,WindDirection,WindDirectionDegrees,WindSpeedMPH,WindSpeedGustMPH,Humidity,HourlyPrecipIn,Conditions,Clouds,dailyrainin,SoftwareType,DateUTC
2013-07-29 00:02:00,60.0,57.0,29.94,North,5,0.0,-999.0,91,-99.99,,,-99.99,,2013-07-29 04:02:00,
2013-07-29 00:12:00,59.0,57.0,29.94,North,5,0.0,-999.0,92,-99.99,,,-99.99,,2013-07-29 04:12:00,
2013-07-29 00:22:00,59.0,57.0,29.94,North,5,0.0,-999.0,92,-99.99,,,-99.99,,2013-07-29 04:22:00,
2013-07-29 00:33:00,59.0,57.0,29.94,North,5,0.0,-999.0,92,-99.99,,,-99.99,,2013-07-29 04:33:00,
2013-07-29 00:53:00,59.0,57.0,29.94,North,5,0.0,-999.0,93,-99.99,,,-99.99,,2013-07-29 04:53:00,
2013-07-29 01:02:00,59.0,57.0,29.95,North,5,0.0,-999.0,93,-99.99,,,-99.99,,2013-07-29 05:02:00,
2013-07-29 01:22:00,59.0,57.0,29.95,SW,230,1.0,-999.0,92,-99.99,,,-99.99,,2013-07-29 05:22:00,
2013-07-29 01:43:00,59.0,55.0,29.95,SW,230,0.0,-999.0,88,-99.99,,,-99.99,,2013-07-29 05:43:00,
2013-07-29 01:53:00,59.0,55.0,29.95,SW,230,0.0,-999.0,88,-99.99,,,-99.99,,2013-07-29 05:53:00,
2013-07-29 02:02:00,59.0,55.0,29.95,SW,230,0.0,-999.0,88,-99.99,,,-99.99,,2013-07-29 06:02:00,
2013-07-29 02:12:00,59.0,55.0,29.95,SW,230,0.0,-999.0,88,-99.99,,,-99.99,,2013-07-29 06:12:00,
2013-07-29 02:22:00,59.0,55.0,29.95,SW,230,0.0,-999.0,88,-99.99,,,-99.99,,2013-07-29 06:22:00,
2013-07-29 02:32:00,58.0,55.0,29.94,SW,230,0.0,-999.0,89,-99.99,,,-99.99,,2013-07-29 06:32:00,
2013-07-29 02:43:00,58.0,55.0,29.95,SW,230,1.0,-999.0,90,-99.99,,,-99.99,,2013-07-29 06:43:00,
2013-07-29 02:52:00,58.0,55.0,29.95,SW,230,1.0,-999.0,90,-99.99,,,-99.99,,2013-07-29 06:52:00,
2013-07-29 03:03:00,58.0,55.0,29.95,SW,230,0.0,-999.0,91,-99.99,,,-99.99,,2013-07-29 07:03:00,
2013-07-29 03:12:00,58.0,55.0,29.95,SW,230,0.0,-999.0,91,-99.99,,,-99.99,,2013-07-29 07:12:00,
2013-07-29 03:23:00,58.0,55.0,29.95,SW,230,0.0,-999.0,91,-99.99,,,-99.99,,2013-07-29 07:23:00,
2013-07-29 03:33:00,58.0,55.0,29.95,SW,230,0.0,-999.0,91,-99.99,,,-99.99,,2013-07-29 07:33:00,
2013-07-29 03:43:00,57.0,54.0,29.95,SW,230,0.0,-999.0,91,-99.99,,,-99.99,,2013-07-29 07:43:00,
2013-07-29 03:53:00,57.0,54.0,29.95,SW,230,0.0,-999.0,91,-99.99,,,-99.99,,2013-07-29 07:53:00,
2013-07-29 04:02:00,57.0,54.0,29.95,SW,230,0.0,-999.0,91,-99.99,,,-99.99,,2013-07-29 08:02:00,
2013-07-29 04:12:00,57.0,54.0,29.95,SW,230,0.0,-999.0,91,-99.99,,,-99.99,,2013-07-29 08:12:00,
2013-07-29 04:22:00,57.0,54.0,29.95,SW,230,0.0,-999.0,91,-99.99,,,-99.99,,2013-07-29 08:22:00,
2013-07-29 04:33:00,57.0,54.0,29.95,SW,230,0.0,-999.0,91,-99.99,,,-99.99,,2013-07-29 08:33:00,
2013-07-29 04:42:00,57.0,54.0,29.95,SW,230,1.0,-999.0,91,-99.99,,,-99.99,,2013-07-29 08:42:00,
2013-07-29 04:52:00,57.0,54.0,29.95,SW,230,1.0,-999.0,91,-99.99,,,-99.99,,2013-07-29 08:52:00,
2013-07-29 05:02:00,58.0,55.0,29.95,SW,230,1.0,-999.0,90,-99.99,,,-99.99,,2013-07-29 09:02:00,
2013-07-29 05:12:00,58.0,55.0,29.95,SW,230,1.0,-999.0,89,-99.99,,,-99.99,,2013-07-29 09:12:00,
2013-07-29 05:22:00,58.0,55.0,29.95,SW,230,1.0,-999.0,89,-99.99,,,-99.99,,2013-07-29 09:22:00,
2013-07-29 05:33:00,58.0,55.0,29.96,SW,229,0.0,-999.0,89,-99.99,,,-99.99,,2013-07-29 09:33:00,
2013-07-29 05:43:00,58.0,54.0,29.96,SW,228,1.0,-999.0,88,-99.99,,,-99.99,,2013-07-29 09:43:00,
2013-07-29 05:53:00,58.0,54.0,29.96,SW,228,1.0,-999.0,88,-99.99,,,-99.99,,2013-07-29 09:53:00,
2013-07-29 06:05:00,58.0,54.0,29.96,SW,222,2.0,-999.0,88,-99.99,,,-99.99,,2013-07-29 10:05:00,
2013-07-29 06:25:00,58.0,54.0,29.96,SSW,200,1.0,-999.0,87,-99.99,,,-99.99,,2013-07-29 10:25:00,
2013-07-29 06:48:00,58.0,54.0,29.97,SSW,200,1.0,-999.0,87,-99.99,,,-99.99,,2013-07-29 10:48:00,
2013-07-29 06:55:00,58.0,54.0,29.97,SSW,200,1.0,-999.0,87,-99.99,,,-99.99,,2013-07-29 10:55:00,
2013-07-29 07:07:00,58.0,54.0,29.97,SSW,200,1.0,-999.0,87,-99.99,,,-99.99,,2013-07-29 11:07:00,
2013-07-29 07:38:00,58.0,54.0,29.98,SSW,200,0.0,-999.0,86,-99.99,,,-99.99,,2013-07-29 11:38:00,
2013-07-29 07:46:00,59.0,55.0,29.98,SSW,200,0.0,-999.0,86,-99.99,,,-99.99,,2013-07-29 11:46:00,
2013-07-29 07:57:00,59.0,55.0,29.98,SSW,200,0.0,-999.0,86,-99.99,,,-99.99,,2013-07-29 11:57:00,
2013-07-29 08:10:00,59.0,54.0,29.98,SSW,200,0.0,-999.0,85,-99.99,,,-99.99,,2013-07-29 12:10:00,
2013-07-29 08:28:00,59.0,54.0,29.98,SSW,200,0.0,-999.0,84,-99.99,,,-99.99,,2013-07-29 12:28:00,
2013-07-29 08:37:00,59.0,54.0,29.98,SSW,200,0.0,-999.0,85,-99.99,,,-99.99,,2013-07-29 12:37:00,
2013-07-29 08:55:00,60.0,55.0,29.98,SSW,200,0.0,-999.0,85,-99.99,,,-99.99,,2013-07-29 12:55:00,
2013-07-29 09:17:00,60.0,55.0,29.99,SSW,200,1.0,-999.0,83,-99.99,,,-99.99,,2013-07-29 13:17:00,
2013-07-29 09:29:00,60.0,55.0,29.99,SSW,200,1.0,-999.0,83,-99.99,,,-99.99,,2013-07-29 13:29:00,
2013-07-29 09:45:00,61.0,56.0,30.00,SSW,200,1.0,-999.0,83,-99.99,,,-99.99,,2013-07-29 13:45:00,
2013-07-29 09:55:00,62.0,56.0,30.00,SW,215,1.0,-999.0,80,-99.99,,,-99.99,,2013-07-29 13:55:00,
2013-07-29 10:07:00,63.0,56.0,30.00,SSW,192,2.0,-999.0,78,-99.99,,,-99.99,,2013-07-29 14:07:00,
2013-07-29 10:29:00,64.0,57.0,30.01,SSW,198,1.0,-999.0,78,-99.99,,,-99.99,,2013-07-29 14:29:00,
2013-07-29 10:36:00,64.0,57.0,30.01,SSW,198,2.0,-999.0,77,-99.99,,,-99.99,,2013-07-29 14:36:00,
2013-07-29 10:55:00,65.0,57.0,30.01,SSW,205,2.0,-999.0,75,-99.99,,,-99.99,,2013-07-29 14:55:00,
2013-07-29 11:09:00,67.0,59.0,30.01,South,188,2.0,-999.0,75,-99.99,,,-99.99,,2013-07-29 15:09:00,
2013-07-29 11:17:00,67.0,59.0,30.01,South,188,2.0,-999.0,75,-99.99,,,-99.99,,2013-07-29 15:17:00,
2013-07-29 11:25:00,68.0,59.0,30.01,SSW,198,1.0,-999.0,73,-99.99,,,-99.99,,2013-07-29 15:25:00,
2013-07-29 11:38:00,69.0,59.0,30.01,SSW,211,2.0,-999.0,70,-99.99,,,-99.99,,2013-07-29 15:38:00,
2013-07-29 11:45:00,69.0,59.0,30.01,SSW,211,2.0,-999.0,70,-99.99,,,-99.99,,2013-07-29 15:45:00,
2013-07-29 11:55:00,68.0,57.0,30.01,West,266,3.0,-999.0,68,-99.99,,,-99.99,,2013-07-29 15:55:00,
2013-07-29 12:08:00,69.0,57.0,30.01,West,275,3.0,-999.0,65,-99.99,,,-99.99,,2013-07-29 16:08:00,
2013-07-29 12:24:00,69.0,55.0,30.01,WSW,253,4.0,-999.0,62,-99.99,,,-99.99,,2013-07-29 16:24:00,
2013-07-29 12:40:00,70.0,54.0,30.01,West,267,5.0,-999.0,56,-99.99,,,-99.99,,2013-07-29 16:40:00,
2013-07-29 12:47:00,70.0,53.0,30.01,SW,219,4.0,-999.0,55,-99.99,,,-99.99,,2013-07-29 16:47:00,
2013-07-29 12:56:00,70.0,53.0,30.01,SW,219,4.0,-999.0,55,-99.99,,,-99.99,,2013-07-29 16:56:00,
2013-07-29 13:09:00,69.0,54.0,30.02,WNW,282,4.0,-999.0,58,-99.99,,,-99.99,,2013-07-29 17:09:00,
2013-07-29 13:25:00,69.0,55.0,30.02,WSW,244,5.0,-999.0,60,-99.99,,,-99.99,,2013-07-29 17:25:00,
2013-07-29 13:42:00,69.0,55.0,30.03,NW,313,4.0,-999.0,61,-99.99,,,-99.99,,2013-07-29 17:42:00,
2013-07-29 13:58:00,68.0,55.0,30.03,WSW,250,5.0,-999.0,64,-99.99,,,-99.99,,2013-07-29 17:58:00,
2013-07-29 14:07:00,68.0,55.0,30.03,West,259,4.0,-999.0,64,-99.99,,,-99.99,,2013-07-29 18:07:00,
2013-07-29 14:16:00,69.0,56.0,30.03,WSW,240,3.0,-999.0,64,-99.99,,,-99.99,,2013-07-29 18:16:00,
2013-07-29 14:27:00,69.0,56.0,30.03,WSW,240,3.0,-999.0,64,-99.99,,,-99.99,,2013-07-29 18:27:00,
2013-07-29 14:38:00,70.0,57.0,30.03,SSW,203,2.0,-999.0,64,-99.99,,,-99.99,,2013-07-29 18:38:00,
2013-07-29 14:57:00,70.0,55.0,30.03,SW,230,3.0,-999.0,60,-99.99,,,-99.99,,2013-07-29 18:57:00,
2013-07-29 15:17:00,70.0,55.0,30.03,West,259,5.0,-999.0,60,-99.99,,,-99.99,,2013-07-29 19:17:00,
2013-07-29 15:27:00,70.0,56.0,30.03,SW,218,3.0,-999.0,62,-99.99,,,-99.99,,2013-07-29 19:27:00,
2013-07-29 15:46:00,70.0,54.0,30.03,SSW,209,6.0,-999.0,57,-99.99,,,-99.99,,2013-07-29 19:46:00,
2013-07-29 16:15:00,69.0,55.0,30.03,West,274,4.0,-999.0,61,-99.99,,,-99.99,,2013-07-29 20:15:00,
2013-07-29 16:25:00,70.0,55.0,30.03,WSW,255,3.0,-999.0,60,-99.99,,,-99.99,,2013-07-29 20:25:00,
2013-07-29 16:48:00,68.0,56.0,30.04,SW,227,4.0,-999.0,65,-99.99,,,-99.99,,2013-07-29 20:48:00,
2013-07-29 16:57:00,68.0,56.0,30.04,SW,227,4.0,-999.0,65,-99.99,,,-99.99,,2013-07-29 20:57:00,
2013-07-29 17:08:00,66.0,57.0,30.04,SSW,209,2.0,-999.0,72,-99.99,,,-99.99,,2013-07-29 21:08:00,
2013-07-29 17:19:00,66.0,57.0,30.04,SSW,209,2.0,-999.0,72,-99.99,,,-99.99,,2013-07-29 21:19:00,
2013-07-29 17:25:00,66.0,58.0,30.05,SSW,200,4.0,-999.0,75,-99.99,,,-99.99,,2013-07-29 21:25:00,
2013-07-29 17:49:00,65.0,58.0,30.04,SSE,166,3.0,-999.0,77,-99.99,,,-99.99,,2013-07-29 21:49:00,
2013-07-29 17:58:00,65.0,58.0,30.04,SSE,166,3.0,-999.0,77,-99.99,,,-99.99,,2013-07-29 21:58:00,
2013-07-29 18:05:00,66.0,59.0,30.04,South,176,2.0,-999.0,77,-99.99,,,-99.99,,2013-07-29 22:05:00,
2013-07-29 18:25:00,66.0,58.0,30.04,SW,215,1.0,-999.0,76,-99.99,,,-99.99,,2013-07-29 22:25:00,
2013-07-29 18:38:00,66.0,59.0,30.04,South,187,2.0,-999.0,77,-99.99,,,-99.99,,2013-07-29 22:38:00,
2013-07-29 18:55:00,67.0,60.0,30.04,South,186,2.0,-999.0,77,-99.99,,,-99.99,,2013-07-29 22:55:00,
2013-07-29 19:06:00,67.0,59.0,30.04,South,186,1.0,-999.0,75,-99.99,,,-99.99,,2013-07-29 23:06:00,
2013-07-29 19:27:00,67.0,59.0,30.04,South,180,2.0,-999.0,76,-99.99,,,-99.99,,2013-07-29 23:27:00,
2013-07-29 19:35:00,67.0,59.0,30.04,SW,228,2.0,-999.0,75,-99.99,,,-99.99,,2013-07-29 23:35:00,
2013-07-29 19:55:00,68.0,59.0,30.05,SW,225,1.0,-999.0,74,-99.99,,,-99.99,,2013-07-29 23:55:00,
2013-07-29 20:08:00,67.0,58.0,30.04,WSW,240,2.0,-999.0,73,-99.99,,,-99.99,,2013-07-30 00:08:00,
2013-07-29 20:27:00,67.0,58.0,30.05,WSW,249,1.0,-999.0,73,-99.99,,,-99.99,,2013-07-30 00:27:00,
2013-07-29 20:35:00,67.0,58.0,30.05,WSW,249,0.0,-999.0,73,-99.99,,,-99.99,,2013-07-30 00:35:00,
2013-07-29 20:49:00,67.0,58.0,30.05,WSW,249,0.0,-999.0,74,-99.99,,,-99.99,,2013-07-30 00:49:00,
2013-07-29 20:55:00,67.0,58.0,30.05,WSW,249,0.0,-999.0,74,-99.99,,,-99.99,,2013-07-30 00:55:00,
2013-07-29 21:08:00,66.0,58.0,30.06,WSW,249,0.0,-999.0,76,-99.99,,,-99.99,,2013-07-30 01:08:00,
2013-07-29 21:17:00,66.0,58.0,30.06,WSW,249,0.0,-999.0,76,-99.99,,,-99.99,,2013-07-30 01:17:00,
2013-07-29 21:57:00,65.0,56.0,30.07,WSW,257,2.0,-999.0,74,-99.99,,,-99.99,,2013-07-30 01:57:00,
2013-07-29 22:07:00,66.0,57.0,30.07,WSW,244,1.0,-999.0,73,-99.99,,,-99.99,,2013-07-30 02:07:00,
2013-07-29 22:15:00,66.0,57.0,30.07,WSW,244,1.0,-999.0,73,-99.99,,,-99.99,,2013-07-30 02:15:00,
2013-07-29 22:25:00,66.0,57.0,30.07,West,261,2.0,-999.0,73,-99.99,,,-99.99,,2013-07-30 02:25:00,
2013-07-29 22:46:00,65.0,57.0,30.08,SW,228,1.0,-999.0,75,-99.99,,,-99.99,,2013-07-30 02:46:00,
2013-07-29 22:55:00,65.0,57.0,30.08,SW,228,1.0,-999.0,75,-99.99,,,-99.99,,2013-07-30 02:55:00,
2013-07-29 23:19:00,65.0,57.0,30.09,SW,231,1.0,-999.0,76,-99.99,,,-99.99,,2013-07-30 03:19:00,
2013-07-29 23:26:00,65.0,57.0,30.09,WSW,242,1.0,-999.0,76,-99.99,,,-99.99,,2013-07-30 03:26:00,
2013-07-29 23:36:00,64.0,57.0,30.09,WSW,249,2.0,-999.0,77,-99.99,,,-99.99,,2013-07-30 03:36:00,
2013-07-29 23:45:00,64.0,57.0,30.09,SW,234,2.0,-999.0,78,-99.99,,,-99.99,,2013-07-30 03:45:00,
2013-07-29 23:53:00,64.0,57.0,30.09,SW,234,2.0,-999.0,78,-99.99,,,-99.99,,2013-07-30 03:53:00,